Voltar ao catálogo

FENGYUN 1C DEB

AtivoSSO
NORAD 29965·DEBRIS·🇨🇳 China

Lançado May 10, 1999 de Taiyuan Satellite Launch Center

Loading…

Próximas Passagens (próximas 24 horas)

TLE

AtualizadoSource: Space-Track

Época: Sep 14, 2026, 12:15 UTC

1 29965U 99025KP  26257.51049991  .00000290  00000-0  22262-3 0  9994
2 29965  98.9801 250.0555 0145707  30.6013 129.2914 13.95906390  1135

Acompanhe FENGYUN 1C DEB em tempo real com AllMySat

Download on the App Store